[[{"header":{"parameterUnit":"m.s-1","parameterCategory":1,"la1":30.2991,"la2":30.254,"lo1":-89.0895,"lo2":-89.0444,"dy":0.0017,"dx":0.0017,"nx":28,"ny":28,"refTime":"2023-09-04T03:00:00:Z","depth":0,"parameterNumber":2,"parameterNumberName":"U-component_of_WINDS"},"data":[0,0,0,0,0,0,0,0,0,0,0,0,0,0,0,0,0,0,0,0,0,0,0,0,0,0,0,0,0,0,0,0,0,0,0,0,0,0,0,0,0,0,0,0,0,0,0,0,0,0,0,0,0,0,0,0,0,0,-2.2973,-2.2973,0,-2.299,-2.299,-2.299,-2.2963,-2.2962,-2.2961,-2.296,-2.2982,-2.2983,-2.2985,0,0,0,0,0,0,0,0,0,0,0,0,0,-2.2924,-2.2925,-2.2973,-2.2973,-2.2973,-2.299,-2.299,-2.299,-2.2963,-2.2962,-2.2961,-2.2959,-2.2981,-2.2983,-2.2985,0,0,0,0,0,0,0,0,0,0,0,0,0,-2.2944,-2.2925,-2.2973,-2.2962,-2.2961,-2.299,-2.299,-2.299,-2.2963,-2.2962,-2.296,-2.2959,-2.2981,-2.2983,-2.2985,-2.3027,0,0,-2.2992,-2.2993,0,0,0,0,0,0,0,0,-2.2942,-2.2945,-2.2963,-2.2963,-2.2962,-2.2972,-2.298,-2.3003,-2.2963,-2.2962,-2.296,-2.2958,-2.298,-2.2982,-2.2989,-2.3028,-2.3029,-2.2992,-2.2993,-2.2994,-2.2995,0,0,0,0,0,0,0,-2.2941,-2.2945,-2.298,-2.2964,-2.2963,-2.2958,-2.2959,-2.2985,-2.2979,-2.2962,-2.296,-2.2963,-2.298,-2.2987,-2.2989,-2.3029,-2.2992,-2.2994,-2.2995,-2.2996,-2.3106,-2.3108,0,0,0,0,0,0,-2.294,-2.2944,-2.2979,-2.298,-2.2948,-2.296,-2.2961,-2.2971,-2.2979,-2.2979,-2.2964,-2.2961,-2.2984,-2.2986,-2.299,-2.304,-2.2994,-2.2996,-2.2997,-2.3105,-2.3107,-2.3108,0,0,0,0,0,0,-2.2939,-2.2944,-2.2979,-2.2961,-2.2965,-2.2962,-2.2973,-2.2972,-2.2979,-2.298,-2.2979,-2.2971,-2.2983,-2.2987,-2.3018,-2.304,-2.2997,-2.2999,-2.3103,-2.3105,-2.3108,-2.3141,0,0,0,0,0,0,-2.2938,-2.2944,-2.2958,-2.2962,-2.2966,-2.3005,-2.2974,-2.2973,-2.2982,-2.2979,-2.2987,-2.2987,-2.2982,-2.3015,-2.302,-2.3043,-2.3001,-2.3101,-2.3104,-2.3107,-2.3138,-2.3144,-2.315,0,0,0,0,0,-2.2936,-2.2967,-2.2959,-2.2963,-2.2984,-2.3006,-2.3009,-2.3001,-2.2984,-2.2999,-2.3,-2.2987,-2.3038,-2.3018,-2.3024,-2.3048,-2.3099,-2.3103,-2.3107,-2.3135,-2.3143,-2.3149,0,0,0,0,0,0,-2.2967,-2.2967,-2.2958,-2.299,-2.2998,-2.3001,-2.302,-2.3009,-2.3023,-2.3019,-2.3011,-2.3013,-2.3047,-2.3051,-2.3029,-2.309,-2.3066,-2.3071,-2.3086,-2.3093,-2.3099,-2.3097,-2.3003,0,0,0,0,0,-2.2977,-2.2993,-2.2994,-2.3023,-2.3027,-2.3023,-2.3032,-2.3026,-2.3034,-2.3038,-2.3041,-2.3051,-2.307,-2.3082,-2.3099,-2.3139,-2.3141,-2.3158,-2.3164,-2.3169,-2.3173,-2.3197,-2.3204,-2.312,-2.312,-2.312,0,0,-2.2999,-2.3001,-2.3012,-2.3029,-2.3034,-2.3053,-2.3026,-2.3047,-2.3061,-2.3041,-2.307,-2.3074,-2.3085,-2.3121,-2.3138,-2.3126,-2.3197,-2.3174,-2.3178,-2.3179,-2.3201,-2.3209,-2.3216,-2.3123,-2.3122,-2.3122,0,0,-2.3048,-2.3051,-2.3076,-2.3082,-2.309,-2.3087,-2.3093,-2.3099,-2.31,-2.3129,-2.3115,-2.3134,-2.3165,-2.3174,-2.3182,-2.3238,-2.3226,-2.3244,-2.3274,-2.3297,-2.3304,-2.331,-2.333,-2.3337,-2.3248,-2.3248,-2.3248,0,-2.3074,-2.31,-2.309,-2.3112,-2.3121,-2.3103,-2.3129,-2.3136,-2.315,-2.3157,-2.3144,-2.3184,-2.319,-2.3229,-2.3243,-2.325,-2.3258,-2.3242,-2.3303,-2.3309,-2.3315,-2.3334,-2.3342,-2.325,-2.325,-2.325,-2.325,0,-2.3132,-2.3151,-2.317,-2.3183,-2.3194,-2.3218,-2.3214,-2.3227,-2.322,-2.322,-2.3252,-2.3259,-2.3278,-2.3287,-2.3281,-2.3326,-2.3318,-2.3304,-2.328,-2.3325,-2.3343,-2.335,-2.3253,-2.3253,-2.3252,-2.3251,0,0,-2.3199,-2.3207,-2.3214,-2.322,-2.3229,-2.3244,-2.3269,-2.3286,-2.3298,-2.3309,-2.333,-2.3359,-2.3346,-2.3356,-2.3352,-2.3372,-2.3417,-2.3356,-2.3356,-2.3367,-2.3468,-2.3478,-2.3487,-2.341,-2.3411,-2.3412,-2.3467,0,-2.3248,-2.3287,-2.3281,-2.332,-2.3338,-2.3323,-2.3345,-2.3354,-2.3356,-2.3373,-2.3376,-2.3396,-2.3378,-2.3384,-2.3403,-2.3407,-2.3437,-2.3403,-2.3431,-2.3432,-2.3428,-2.3496,-2.3506,-2.3557,-2.3474,-2.3476,-2.3476,0,-2.3309,-2.3321,-2.3362,-2.337,-2.3377,-2.3396,-2.3412,-2.3429,-2.344,-2.344,-2.3452,-2.3445,-2.3472,-2.3448,-2.3487,-2.3464,-2.3476,-2.348,-2.3482,-2.3484,-2.3456,-2.3499,-2.3573,-2.3581,-2.3487,-2.3487,-2.3486,0,-2.3354,-2.3381,-2.3409,-2.3415,-2.3424,-2.3438,-2.3443,-2.3453,-2.3464,-2.348,-2.3487,-2.3506,-2.3517,-2.3533,-2.3532,-2.3514,-2.3572,-2.3547,-2.3574,-2.3574,-2.3585,-2.3584,-2.3662,-2.3594,-2.3594,-2.3594,-2.3594,0,-2.3408,-2.3434,-2.3429,-2.3446,-2.3476,-2.347,-2.35,-2.3503,-2.3512,-2.3532,-2.3522,-2.3541,-2.3538,-2.3559,-2.3559,-2.3591,-2.3596,-2.3598,-2.3598,-2.3599,-2.3599,-2.3606,-2.3602,-2.3596,-2.3595,-2.3595,-2.3595,0,-2.3462,-2.346,-2.349,-2.3496,-2.3499,-2.352,-2.3527,-2.3545,-2.3546,-2.3571,-2.3577,-2.358,-2.3603,-2.3604,-2.3631,-2.3632,-2.3672,-2.3668,-2.3667,-2.3666,-2.3692,-2.369,-2.3777,-2.3788,-2.3713,-2.3714,-2.3715,0,-2.3497,-2.3516,-2.3525,-2.3536,-2.3542,-2.3561,-2.3572,-2.3568,-2.3581,-2.3596,-2.3613,-2.3635,-2.3652,-2.3691,-2.3697,-2.3718,-2.3715,-2.3744,-2.3718,-2.3719,-2.3715,-2.3714,-2.3716,-2.3748,-2.3749,-2.375,-2.375,0,-2.3559,-2.3557,-2.3572,-2.3589,-2.3602,-2.3615,-2.3627,-2.3638,-2.3635,-2.3651,-2.3674,-2.3687,-2.3715,-2.3738,-2.3759,-2.3767,-2.3759,-2.3759,-2.3766,-2.3767,-2.3766,-2.3767,-2.368,-2.3757,-2.3756,-2.3755,-2.3755,-2.3755,-2.3604,-2.3621,-2.363,-2.3648,-2.3657,-2.3669,-2.3686,-2.3689,-2.3708,-2.3728,-2.3726,-2.3752,-2.3766,-2.3793,-2.3803,-2.3825,-2.3816,-2.3826,-2.3829,-2.3831,-2.3834,-2.3763,-2.3829,-2.3829,-2.3829,-2.3829,-2.3829,0,-2.3665,-2.3671,-2.3688,-2.3704,-2.372,-2.3709,-2.3723,-2.3737,-2.3759,-2.3772,-2.3789,-2.3817,-2.384,-2.3848,-2.3871,-2.3887,-2.3884,-2.3893,-2.3892,-2.3894,-2.3841,-2.3832,-2.3895,-2.3895,-2.3895,-2.3895,-2.3895,-2.3895,-2.3699,-2.3727,-2.3727,-2.3761,-2.3766,-2.379,-2.3799,-2.3811,-2.382,-2.3851,-2.3869,-2.3874,-2.3886,-2.391,-2.3932,-2.3934,-2.3943,-2.3954,-2.3954,-2.3904,-2.3898,-2.3891,-2.3883,-2.3956,-2.3956,-2.4006,-2.4006,-2.4006]},{"header":{"parameterUnit":"m.s-1","parameterCategory":1,"la1":30.2991,"la2":30.254,"lo1":-89.0895,"lo2":-89.0444,"dy":0.0017,"dx":0.0017,"nx":28,"ny":28,"refTime":"2023-09-04T03:00:00:Z","depth":0,"parameterNumber":3,"parameterNumberName":"V-component_of_WINDS"},"data":[0,0,0,0,0,0,0,0,0,0,0,0,0,0,0,0,0,0,0,0,0,0,0,0,0,0,0,0,0,0,0,0,0,0,0,0,0,0,0,0,0,0,0,0,0,0,0,0,0,0,0,0,0,0,0,0,0,0,2.4947,2.4946,0,2.4929,2.4929,2.4929,2.489,2.489,2.4889,2.4888,2.4873,2.4873,2.4873,0,0,0,0,0,0,0,0,0,0,0,0,0,2.4951,2.4951,2.4947,2.4946,2.4946,2.4929,2.4929,2.4929,2.4891,2.489,2.4889,2.4888,2.4873,2.4873,2.4873,0,0,0,0,0,0,0,0,0,0,0,0,0,2.4943,2.4951,2.4947,2.4925,2.4923,2.4929,2.4929,2.4929,2.4891,2.489,2.4888,2.4887,2.4872,2.4873,2.4873,2.49,0,0,2.4875,2.4875,0,0,0,0,0,0,0,0,2.4943,2.4943,2.4929,2.4927,2.4924,2.4911,2.4925,2.4919,2.4891,2.4903,2.4888,2.4887,2.4886,2.4886,2.4885,2.4899,2.4899,2.4875,2.4875,2.4875,2.4876,0,0,0,0,0,0,0,2.4944,2.4943,2.494,2.4928,2.4926,2.4917,2.4915,2.4923,2.4902,2.4902,2.4899,2.4897,2.4885,2.4885,2.4884,2.4898,2.4875,2.4875,2.4876,2.4876,2.4935,2.4936,0,0,0,0,0,0,2.4947,2.4944,2.494,2.4939,2.4931,2.4918,2.4916,2.4916,2.4901,2.4898,2.4898,2.4896,2.4884,2.4884,2.4884,2.4914,2.4875,2.4876,2.4876,2.4934,2.4935,2.4937,0,0,0,0,0,0,2.4947,2.4947,2.4941,2.4941,2.4939,2.4919,2.4921,2.4917,2.4916,2.4899,2.4895,2.4902,2.4884,2.4883,2.4896,2.4913,2.4876,2.4877,2.4932,2.4934,2.4936,2.4975,0,0,0,0,0,0,2.4947,2.4947,2.4956,2.4941,2.4939,2.4953,2.4922,2.4917,2.4917,2.4913,2.4901,2.4898,2.4883,2.4896,2.4897,2.4913,2.4877,2.493,2.4933,2.4935,2.4972,2.4978,2.4984,0,0,0,0,0,2.4948,2.4968,2.4957,2.4957,2.495,2.4954,2.4953,2.4934,2.4918,2.4928,2.4917,2.4898,2.4911,2.4897,2.4898,2.4915,2.4929,2.4932,2.4935,2.497,2.4977,2.4983,0,0,0,0,0,0,2.4986,2.4966,2.4953,2.4969,2.4964,2.4947,2.4958,2.4942,2.4942,2.4938,2.4916,2.4914,2.493,2.4924,2.4909,2.4941,2.4917,2.4921,2.4944,2.4951,2.4956,2.4957,2.4877,0,0,0,0,0,2.4997,2.5001,2.4983,2.4999,2.4997,2.4979,2.4979,2.4966,2.4959,2.4957,2.4947,2.4942,2.4945,2.4948,2.495,2.4972,2.4969,2.4984,2.499,2.4994,2.4997,2.5009,2.5016,2.4946,2.4946,2.4946,0,0,2.5018,2.5008,2.5011,2.5007,2.5001,2.5006,2.4977,2.4983,2.4988,2.4958,2.4969,2.4963,2.4956,2.4974,2.4982,2.4969,2.5016,2.4998,2.5002,2.5002,2.5013,2.502,2.5025,2.4948,2.4948,2.4947,0,0,2.506,2.5052,2.5065,2.506,2.5051,2.5039,2.5042,2.5029,2.5023,2.5034,2.5012,2.5018,2.5023,2.502,2.5019,2.5061,2.5044,2.5063,2.5091,2.5103,2.5109,2.5114,2.5129,2.5135,2.5066,2.5066,2.5066,0,2.5088,2.5094,2.5074,2.5082,2.5081,2.5055,2.5068,2.5064,2.5057,2.5058,2.5044,2.5051,2.5045,2.5062,2.5073,2.5073,2.5077,2.5063,2.511,2.5114,2.5118,2.5133,2.5139,2.5068,2.5068,2.5067,2.5067,0,2.5129,2.5135,2.5146,2.5139,2.514,2.5151,2.5133,2.5136,2.5123,2.5113,2.5126,2.5117,2.5117,2.5121,2.5108,2.5137,2.513,2.5113,2.5089,2.5128,2.5141,2.5146,2.5071,2.507,2.507,2.5069,0,0,2.5194,2.5176,2.5181,2.5178,2.5167,2.5171,2.5182,2.5181,2.5185,2.5181,2.519,2.5196,2.5181,2.518,2.5167,2.5178,2.5213,2.5161,2.516,2.5171,2.5245,2.5257,2.5264,2.5202,2.5203,2.5204,2.5246,0,2.5233,2.5248,2.5231,2.5251,2.5256,2.5232,2.5241,2.5236,2.5228,2.5232,2.5222,2.5227,2.5207,2.5206,2.5216,2.5207,2.5228,2.5204,2.5211,2.5212,2.5213,2.5271,2.5283,2.5323,2.5251,2.5252,2.5252,0,2.528,2.5278,2.5298,2.5287,2.5289,2.5297,2.5296,2.53,2.5295,2.5288,2.5288,2.5272,2.5283,2.526,2.5276,2.526,2.5262,2.5258,2.5259,2.5259,2.5234,2.5272,2.5335,2.5341,2.526,2.5259,2.5259,0,2.5325,2.5328,2.534,2.5339,2.5326,2.5333,2.5328,2.5322,2.5323,2.5323,2.5323,2.5325,2.5325,2.5327,2.5313,2.5298,2.5331,2.5307,2.5326,2.5326,2.5333,2.5333,2.5397,2.5335,2.5335,2.5335,2.5335,0,2.537,2.5383,2.5361,2.5368,2.5383,2.5364,2.538,2.5373,2.5368,2.5374,2.5354,2.5361,2.5342,2.5348,2.5337,2.5352,2.5352,2.5348,2.5345,2.5349,2.535,2.535,2.5347,2.5337,2.5336,2.5336,2.5336,0,2.5422,2.5407,2.542,2.5407,2.5404,2.5416,2.5405,2.5413,2.5403,2.5412,2.5414,2.5399,2.5405,2.5391,2.5395,2.5387,2.5409,2.5401,2.541,2.5408,2.5428,2.5426,2.5494,2.5503,2.5436,2.5436,2.5437,0,2.5452,2.5461,2.545,2.5453,2.5449,2.5454,2.5455,2.5437,2.544,2.5435,2.5444,2.5448,2.545,2.546,2.5451,2.5454,2.5446,2.547,2.5447,2.5451,2.5447,2.5446,2.5448,2.5475,2.5476,2.5476,2.5477,0,2.5506,2.5498,2.55,2.55,2.5502,2.5502,2.55,2.5504,2.5485,2.5489,2.5494,2.5496,2.55,2.5504,2.5506,2.5502,2.5487,2.5484,2.5489,2.5494,2.5498,2.5496,2.5423,2.5483,2.5482,2.5482,2.5481,2.5481,2.5548,2.5555,2.5549,2.5552,2.5549,2.5548,2.5554,2.5546,2.5549,2.5551,2.5541,2.5548,2.5545,2.5544,2.5543,2.5549,2.5539,2.5545,2.5547,2.5549,2.5552,2.5498,2.555,2.5549,2.5549,2.5549,2.5549,0,2.5601,2.5595,2.5599,2.5597,2.56,2.5585,2.5582,2.5586,2.5593,2.559,2.5593,2.56,2.5604,2.5596,2.5599,2.5606,2.5599,2.5608,2.5607,2.5607,2.5561,2.5557,2.5613,2.5613,2.5613,2.5613,2.5613,2.5613,2.5629,2.5641,2.5633,2.5645,2.564,2.5647,2.5647,2.5646,2.5644,2.5652,2.5655,2.565,2.5645,2.5648,2.5652,2.565,2.5652,2.5663,2.5658,2.5616,2.561,2.5604,2.5599,2.5664,2.5664,2.5703,2.5703,2.5703]}]]